Regional Weather Roundup
Issued by NWS

Home | Current Version | Previous Version | Text Only | Print | Product List | Glossary On
Versions: 1 2 3 4 5 6 7 8 9 10 11 12 13 14 15 16 17 18 19 20 21 22 23 24 25 26 27 28 29 30 31 32 33 34 35 36 37 38 39 40 41 42 43 44 45 46 47 48 49 50
000
ASUS43 KMPX 181901
RWRMN
WEATHER ROUNDUP FOR MINNESOTA
NATIONAL WEATHER SERVICE TWIN CITIES/CHANHASSEN MN
100 PM CST WED JAN 18 2017


NOTE: "FAIR" INDICATES FEW OR NO CLOUDS BELOW 12,000 FEET WITH NO
SIGNIFICANT WEATHER AND/OR OBSTRUCTIONS TO VISIBILITY. N/A MEANS
CURRENT SKY AND/OR WEATHER CONDITIONS ARE NOT AVAILABLE.

MNZ060>063-068>070-182000-
   Twin Cities Metro

CITY           SKY/WX    TMP DP  RH WIND       PRES   REMARKS
TWIN CITIES    SUNNY     40  30  67 SW13G22   29.87F
ST PAUL        SUNNY     40  31  70 S10       29.88F
CRYSTAL        SUNNY     39  27  62 S10       29.85F
BLAINE         SUNNY     39  30  70 S14       29.85F
LAKEVILLE      SUNNY     37  30  75 S5        29.88F
EDEN PRAIRIE   SUNNY     37  30  75 S12       29.86F
SOUTH ST PAUL  SUNNY     40  31  69 S9G16     29.87F
LAKE ELMO      FAIR      37  32  81 S13       29.88S
$$
MNZ001>005-007-008-013>017-022>024-027-028-182000-
   Northwest Minnesota

CITY           SKY/WX    TMP DP  RH WIND       PRES   REMARKS
BEMIDJI        SUNNY     40  27  59 CALM      29.72S
HALLOCK        CLOUDY    27  23  86 S15       29.67F WCI  15
ROSEAU         CLOUDY    30  25  80 S5        29.69S WCI  25
WARROAD        CLOUDY    32  25  74 CALM      29.71R
THIEF RVR FALL CLOUDY    32  23  69 S10       29.71F WCI  24
CROOKSTON      CLOUDY    27  21  80 S13       29.71F WCI  16
FOSSTON        CLOUDY    34  21  60 S13       29.71F WCI  25
DETROIT LAKES  SUNNY     36  27  69 S7        29.75F
MOORHEAD       SUNNY     28  23  80 S9        29.75F WCI  20
PARK RAPIDS    SUNNY     33  23  66 S7        29.73F WCI  27
MAHNOMEN       FAIR      32  24  71 S10       29.72F WCI  24
$$
MNZ006-009>011-018-025>026-182000-
   North Central Minnesota

CITY           SKY/WX    TMP DP  RH WIND       PRES   REMARKS
BAUDETTE       CLOUDY    33  22  63 SE6       29.71S WCI  28
FLAG ISLAND    CLOUDY    25  19  80 SE7       29.70S WCI  17
INTL FALLS     SUNNY     35  23  61 CALM      29.74S
WASKISH        CLOUDY    36  25  64 W3        29.72F
BIG FORK       SUNNY     37  25  60 CALM      29.74S
LONGVILLE      SUNNY     41  25  52 CALM      29.74F
GRAND RAPIDS   SUNNY     39  24  55 CALM      29.76F
CRANE LAKE     SUNNY     34  21  60 CALM      29.77S
ORR            CLOUDY    37  21  52 CALM      29.72S
COOK           CLOUDY    36  25  64 W5        29.75S
WALKER         FAIR      40  25  55 CALM      29.73S
$$
MNZ012-019>021-037-182000-
   Northeast Minnesota

CITY           SKY/WX    TMP DP  RH WIND       PRES   REMARKS
DULUTH         SUNNY     37  26  64 SW9       29.76S
ELY            CLOUDY    36  25  64 W6        29.74S
HIBBING        SUNNY     34  24  67 NW7       29.74F WCI  28
EVELETH        SUNNY     37  25  61 W6        29.76S
DULUTH HARBOR  SUNNY     37  28  70 SW5       29.80S
TWO HARBORS    SUNNY     43  28  56 SW9       29.74S
SILVER BAY     SUNNY     46  28  49 SW5       29.71F
GRAND MARAIS     N/A     37  32  82 SW16      29.74F
G MARAIS ARPRT SUNNY     37  23  56 W5        29.71S
$$
MNZ029>031-032-039>041-046>048-054>057-064-182000-
   West Central Minnesota

CITY           SKY/WX    TMP DP  RH WIND       PRES   REMARKS
FERGUS FALLS   SUNNY     32  25  74 S6        29.80F WCI  26
WHEATON        SUNNY     41  36  81 E8        29.78S
MORRIS         SUNNY     36  28  75 SE8       29.77F
ALEXANDRIA     SUNNY     35  26  69 S3        29.77F
ELBOW LAKE     FAIR      32  27  80 E9        29.76F HAZE    WCI  24
WADENA         SUNNY     36  25  64 SW3       29.76F
GLENWOOD       SUNNY     36  27  69 S10       29.78F
APPLETON       SUNNY     39  27  60 S7        29.78S
ORTONVILLE     SUNNY     39  27  60 CALM      29.76F
MADISON        SUNNY     39  30  70 S13       29.79R
WILLMAR        FAIR      36  30  80 CALM      29.83R
$$
MNZ033>034-036-042>043-049>051-058-059-182000-
   Central Minnesota

CITY           SKY/WX    TMP DP  RH WIND       PRES   REMARKS
ST CLOUD       SUNNY     36  28  73 S10       29.81F
SAUK CENTRE    FAIR      34  28  78 SE3       29.79F
PAYNESVILLE    SUNNY     36  27  71 S6        29.82R
AITKIN         SUNNY     41  21  45 SW7       29.77S
PINE RIVER     SUNNY     39  27  60 S6        29.80F
BRAINERD       SUNNY     35  25  66 S6        29.79S WCI  30
STAPLES        SUNNY     37  25  60 S5        29.78S
LONG PRAIRIE   FAIR      34  27  75 SE6       29.79F WCI  29
LITTLE FALLS   SUNNY     36  27  69 CALM      29.80F
LITCHFIELD     SUNNY     37  30  75 S3        29.83S
BUFFALO        SUNNY     37  28  70 S7        29.86R
MAPLE LAKE     SUNNY     38  30  72 S9        29.85R
HUTCHINSON     CLOUDY    37  32  84 S9        29.85F
$$
MNZ037-044-045-052-053-182000-
   East Central Minnesota

CITY           SKY/WX    TMP DP  RH WIND       PRES   REMARKS
PRINCETON      SUNNY     39  28  65 S6        29.83F
MORA           SUNNY     36  27  69 SW5       29.85S
CAMBRIDGE      SUNNY     39  28  65 S8        29.81F
RUSH CITY      SUNNY     39  28  65 S7        29.83F
MOOSE LAKE     SUNNY     36  27  69 S8        29.79S
HINCKLEY       FAIR      36  30  80 S7        29.82F
CLOQUET        SUNNY     36  25  64 S9        29.77F
MCGREGOR       SUNNY     37  27  65 SW8       29.78F
$$
MNZ071>073-080-081-089-090-097-098-182000-
   Southwest Minnesota

CITY           SKY/WX    TMP DP  RH WIND       PRES   REMARKS
MONTEVIDEO     SUNNY     41  28  60 SW9       29.82S
GRANITE FALLS  SUNNY     38  32  78 S13       29.83F
CANBY            N/A     39  29  66 CALM      29.80F
MARSHALL       SUNNY     41  29  62 S9        29.82F
REDWOOD FALLS  SUNNY     37  30  75 S10       29.83F
OLIVIA         SUNNY     36  32  87 S12       29.82F
PIPESTONE      SUNNY     37  32  81 SW10      29.82F
WINDOM           N/A     37  34  87 S12       29.85F
WORTHINGTON    SUNNY     38  32  79 SW16      29.85F
JACKSON        SUNNY     36  32  87 S17       29.86F
TRACY          SUNNY     39  32  76 SW18      29.82F
SLAYTON        SUNNY     36  32  87 SW9       29.85S
$$
MNZ065>067-074>077-082>085-091>093-182000-
   South Central Minnesota

CITY           SKY/WX    TMP DP  RH WIND       PRES   REMARKS
MANKATO        SUNNY     38  32  79 S10       29.89F
NEW ULM        SUNNY     37  32  81 S6        29.86S
ST JAMES       SUNNY     37  34  87 S14       29.87F
GLENCOE        SUNNY     37  33  86 S10       29.84F
FARIBAULT      SUNNY     37  32  81 S10       29.90S
OWATONNA       SUNNY     36  30  80 S15       29.89F
WASECA         SUNNY     36  32  87 S14       29.90F
ALBERT LEA     SUNNY     36  36 100 S12G18    29.91F
$$
MNZ078>079-086>088-094>096-182000-
   Southeast Minnesota

CITY           SKY/WX    TMP DP  RH WIND       PRES   REMARKS
ROCHESTER      CLOUDY    31  30  96 S22       29.91F FOG     WCI  18
RED WING       SUNNY     37  28  70 S7        29.92S
STANTON        SUNNY     37  31  80 S9        29.89S
DODGE CENTER   CLOUDY    34  30  86 S17       29.90F FOG     WCI  23
WINONA           N/A     36  30  80 S5        29.95F
AUSTIN         CLOUDY    32  30  93 S14       29.92F FOG     WCI  22
PRESTON        CLOUDY    31  29  94 S17       29.94F FOG     WCI  19
$$
ABBREVIATIONS USED IN REMARKS
   TC - TEMPERATURES IN CELSIUS
  WCI - WIND CHILL INDEX
   HX - HEAT INDEX
  VSB - VISIBILITY
$$




USA.gov is the U.S. government's official web portal to all federal, state and local government web resources and services.